Overview Statistics Trail Chart Weather Telemetry Raw packets
 

This is the latest recevied weather packets stored in our database for station/object W4UWO. If no packets are shown the sender has not sent any weather packets the latest 10 day(s).

<< 111 112 113 114 >>
Time Temp. Humidity Pressure Rain* Wind** Luminosity Snow
1787777189 25.56° C 78% 1015.9 hPa 0 mm - 183 W/m² -
1787776888 25.56° C 79% 1015.8 hPa 0 mm - 146 W/m² -
1787776587 25° C 82% 1015.8 hPa 0 mm - 131 W/m² -
1787776286 25° C 83% 1016.1 hPa 0 mm - 121 W/m² -
1787775985 25° C 81% 1016.2 hPa 0 mm - 113 W/m² -
1787775680 25° C 83% 1016.5 hPa 0 mm - 126 W/m² -
1787775378 25° C 82% 1016.8 hPa 0 mm - 122 W/m² -
1787775073 24.44° C 83% 1016.6 hPa 0 mm - 100 W/m² -
1787774773 24.44° C 83% 1016.8 hPa 0 mm - 71 W/m² -
1787774467 24.44° C 83% 1016.8 hPa 0 mm - 73 W/m² -
1787774166 24.44° C 82% 1016.9 hPa 0 mm - 74 W/m² -
1787773865 24.44° C 80% 1017 hPa 0 mm - 66 W/m² -
1787773563 25° C 79% 1016.8 hPa 0 mm - 59 W/m² -
1787773260 25° C 77% 1016.8 hPa 0 mm - 57 W/m² -
1787772955 26.11° C 73% 1017 hPa 0 mm - 59 W/m² -
1787772651 26.67° C 69% 1017.2 hPa 0 mm - 56 W/m² -
1787772349 26.67° C 68% 1016.9 hPa 0 mm - 56 W/m² -
1787772049 26.67° C 67% 1017 hPa 0 mm - 58 W/m² -
1787771749 27.22° C 66% 1016.8 hPa 0 mm - 59 W/m² -
1787771447 27.22° C 65% 1017 hPa 0 mm - 58 W/m² -
1787771147 27.22° C 65% 1016.8 hPa 0 mm - 64 W/m² -
1787770843 27.22° C 66% 1017 hPa 0 mm - 67 W/m² -
1787770541 27.78° C 62% 1017 hPa 0 mm - 73 W/m² -
1787770240 27.78° C 62% 1017.3 hPa 0 mm - 79 W/m² -

* Rain latest hour (hover to see other rain measurements)
** Current wind speed in m/s (hover to see current wind gust speed)